Location: Bergnershof
(48.9468°N, 10.9431°E)
Time: 20:29:11
(UTC+00:00)

Resurs 01 Rocket - Visible Passes

Search period start: 24 June 2021 00:00
Search period end: 04 July 2021 00:00
Orbit: 634 x 644 km, 97.9° (Epoch: 23 June)

Date Brightness Start Highest point End Pass type
(mag) Time Alt. Az. Time Alt. Az. Time Alt. Az.
24 Jun 4.0 20:59:16 10° SW 21:02:19 18° W 21:05:23 10° NW visible
25 Jun 4.4 21:24:37 10° WSW 21:25:46 11° W 21:26:56 10° WNW visible
26 Jun 2.3 20:07:30 10° S 20:11:49 53° W 20:16:09 10° NNW visible
27 Jun 3.2 20:31:09 10° SSW 20:35:05 32° W 20:39:04 10° NNW visible
28 Jun 3.9 20:55:14 10° SW 20:58:27 20° W 21:01:42 10° NW visible
29 Jun 4.3 21:20:13 10° WSW 21:21:53 12° W 21:23:35 10° WNW visible
30 Jun 2.2 20:03:38 10° S 20:07:58 58° W 20:12:21 10° NNW visible
01 Jul 3.1 20:27:13 10° SSW 20:31:14 35° W 20:35:18 10° NNW visible
02 Jul 3.8 20:51:12 10° SW 20:54:35 21° W 20:57:59 10° NW visible
03 Jul 4.2 21:15:56 10° WSW 21:18:00 13° W 21:20:05 10° WNW visible
